GW6979 Weather Reports


time (UTC)temp
F
wind
direction
speed
knots
gust
knots
rain 1hr
in
rain 24hr
in
rain mn
in
humidity
%
barometer
mb
20260507224456 71 145 0.0 0.9 0.00 0.17 0.17 95
20260507223953 71 209 0.0 0.0 0.00 0.17 0.17 95
20260507223449 71 209 0.0 0.9 0.00 0.17 0.17 95
20260507222946 71 242 1.7 3.5 0.00 0.17 0.17 95
20260507222443 71 263 0.0 0.9 0.00 0.17 0.17 95
20260507221939 71 259 0.0 1.7 0.00 0.17 0.17 95
20260507221436 71 259 0.0 0.0 0.00 0.17 0.17 95
20260507220932 71 260 0.9 1.7 0.00 0.17 0.17 95
20260507220430 71 257 0.9 0.9 0.00 0.17 0.17 95
20260507215927 71 59 0.9 1.7 0.17 0.17 0.17 95
20260507215423 71 213 0.0 0.9 0.24 0.16 0.16 95
20260507214920 71 109 0.0 0.9 0.12 0.13 0.13 94
20260507214418 71 74 0.9 1.7 0.05 0.11 0.11 94
20260507213913 71 202 0.0 0.0 0.12 0.11 0.11 93
20260507213410 72 204 0.0 0.0 0.07 0.10 0.10 93
20260507212907 73 205 0.0 1.7 0.00 0.09 0.09 94
20260507212403 73 166 2.6 2.6 0.00 0.09 0.09 94
20260507211900 73 264 2.6 2.6 0.24 0.09 0.09 94
20260507211356 73 192 0.0 0.9 0.24 0.09 0.09 94
20260507210853 73 188 0.0 0.0 0.00 0.05 0.05 94
20260507210350 73 189 0.9 0.9 0.00 0.05 0.05 94
20260507205847 73 135 0.0 0.9 0.00 0.05 0.05 94
20260507205344 74 246 2.6 3.5 0.07 0.05 0.05 94
20260507204840 74 227 1.7 3.5 0.00 0.04 0.04 93
20260507204337 74 186 0.9 1.7 0.00 0.04 0.04 93
20260507203835 74 204 0.9 2.6 0.00 0.04 0.04 93
20260507203333 75 198 0.9 2.6 0.00 0.04 0.04 93
20260507202828 75 235 1.7 2.6 0.00 0.04 0.04 92
20260507202325 74 194 0.9 0.9 0.00 0.04 0.04 93
20260507201820 74 202 0.0 1.7 0.00 0.04 0.04 93
20260507201316 74 224 1.7 3.5 0.00 0.04 0.04 93
20260507200813 74 212 1.7 6.1 0.00 0.04 0.04 93
20260507200309 74 218 1.7 2.6 0.00 0.04 0.04 92
20260507195805 74 181 0.9 5.2 0.00 0.04 0.04 93
20260507195305 74 207 3.5 3.5 0.00 0.04 0.04 92
20260507194800 74 271 2.6 2.6 0.00 0.04 0.04 92
20260507194256 75 245 2.6 5.2 0.00 0.04 0.04 92
20260507193753 75 243 3.5 3.5 0.00 0.04 0.04 92
20260507193249 75 224 0.9 1.7 0.00 0.04 0.04 92
20260507192745 75 235 0.9 2.6 0.00 0.04 0.04 92
20260507192242 75 207 3.5 3.5 0.12 0.04 0.04 91
20260507191738 75 172 1.7 3.5 0.17 0.04 0.04 92
20260507191235 75 219 1.7 3.5 0.05 0.02 0.02 91
20260507190732 75 208 1.7 3.5 0.00 0.01 0.01 91
20260507190231 75 225 2.6 6.1 0.00 0.01 0.01 90
20260507185729 75 198 1.7 7.0 0.00 0.01 0.01 90
20260507185225 75 192 3.5 7.0 0.00 0.01 0.01 89
20260507184723 76 212 2.6 3.5 0.07 0.01 0.01 89
20260507184221 77 202 4.3 7.0 0.07 0.01 0.01 86
20260507183717 77 212 3.5 5.2 0.00 0.00 0.00 85
20260507183214 78 256 5.2 7.0 0.00 0.00 0.00 81
20260507182712 79 144 4.3 7.0 0.00 0.00 0.00 79
20260507182206 80 101 1.7 7.0 0.00 0.00 0.00 78
20260507181703 79 243 7.0 7.8 0.00 0.00 0.00 79
20260507181200 79 244 5.2 9.6 0.00 0.00 0.00 80
20260507180656 79 229 5.2 8.7 0.00 0.00 0.00 79
20260507180154 80 235 4.3 7.8 0.00 0.00 0.00 78
20260507175649 79 241 5.2 6.1 0.00 0.00 0.00 80
20260507175146 78 231 1.7 2.6 0.00 0.00 0.00 81
20260507174643 77 220 2.6 3.5 0.00 0.00 0.00 81
20260507174142 78 243 3.5 5.2 0.00 0.00 0.00 81
20260507173639 79 209 1.7 2.6 0.00 0.00 0.00 79
20260507173136 79 204 0.9 3.5 0.00 0.00 0.00 78
20260507172632 79 212 2.6 3.5 0.00 0.00 0.00 78
20260507172129 79 113 0.0 0.9 0.00 0.00 0.00 77
20260507171624 79 138 0.0 1.7 0.00 0.00 0.00 78
20260507171121 80 300 0.9 1.7 0.00 0.00 0.00 76
20260507170618 80 211 0.0 1.7 0.00 0.00 0.00 74
20260507170115 82 216 0.9 2.6 0.00 0.00 0.00 69
20260507165610 82 110 0.0 1.7 0.00 0.00 0.00 69
20260507165107 82 166 0.0 0.9 0.00 0.00 0.00 69
20260507164603 81 147 0.9 0.9 0.00 0.00 0.00 71
20260507164100 81 63 1.7 1.7 0.00 0.00 0.00 69
20260507163558 81 130 0.9 0.9 0.00 0.00 0.00 71
20260507163056 81 129 0.0 0.9 0.00 0.00 0.00 70
20260507162555 82 91 1.7 3.5 0.00 0.00 0.00 68
20260507162053 81 98 1.7 2.6 0.00 0.00 0.00 68
20260507161549 80 101 0.0 0.9 0.00 0.00 0.00 71
20260507161046 79 83 1.7 2.6 0.00 0.00 0.00 72
20260507160542 80 90 2.6 3.5 0.00 0.00 0.00 72
20260507160038 80 110 0.9 1.7 0.00 0.00 0.00 71
20260507155534 80 80 3.5 5.2 0.00 0.00 0.00 70
20260507155031 79 97 4.3 6.1 0.00 0.00 0.00 73
20260507154528 79 95 2.6 6.1 0.00 0.00 0.00 74
20260507154025 79 73 0.9 1.7 0.00 0.00 0.00 74
20260507153522 80 99 1.7 2.6 0.00 0.00 0.00 72
20260507153018 80 83 6.1 7.8 0.00 0.00 0.00 69
20260507152514 80 86 0.9 0.9 0.00 0.00 0.00 69
20260507152011 81 66 3.5 5.2 0.00 0.00 0.00 70
20260507151507 80 68 2.6 3.5 0.00 0.00 0.00 72
20260507151004 79 100 5.2 7.0 0.00 0.00 0.00 74
20260507150501 79 90 1.7 3.5 0.00 0.00 0.00 75
20260507145957 80 78 4.3 5.2 0.00 0.00 0.00 73
20260507145452 79 97 4.3 6.1 0.00 0.00 0.00 74
20260507144950 79 123 0.9 2.6 0.00 0.00 0.00 72
20260507144446 79 92 5.2 7.0 0.00 0.00 0.00 72
20260507143943 79 93 2.6 3.5 0.00 0.00 0.00 72
20260507143441 80 97 2.6 7.0 0.00 0.00 0.00 72
20260507142938 79 167 1.7 1.7 0.00 0.00 0.00 72
20260507142433 80 73 1.7 5.2 0.00 0.00 0.00 70
20260507141931 80 77 1.7 1.7 0.00 0.00 0.00 72
20260507141427 80 164 3.5 3.5 0.00 0.00 0.00 73
20260507140924 80 139 2.6 2.6 0.00 0.00 0.00 71
20260507140420 79 124 0.9 0.9 0.00 0.00 0.00 75
20260507135918 78 140 0.9 2.6 0.00 0.00 0.00 76
20260507135414 79 90 5.2 7.0 0.00 0.00 0.00 73
20260507134912 78 133 2.6 2.6 0.00 0.00 0.00 76
20260507134408 77 130 1.7 1.7 0.00 0.00 0.00 79
20260507133904 78 81 2.6 5.2 0.00 0.00 0.00 77
20260507133400 78 174 1.7 2.6 0.00 0.00 0.00 77
20260507132859 79 82 2.6 5.2 0.00 0.00 0.00 76
20260507132355 79 82 1.7 3.5 0.00 0.00 0.00 77
20260507131852 78 102 0.9 2.6 0.00 0.00 0.00 78
20260507131349 77 102 0.0 1.7 0.00 0.00 0.00 81
20260507130846 77 106 0.9 1.7 0.00 0.00 0.00 81
20260507130343 76 65 1.7 5.2 0.00 0.00 0.00 81
20260507125842 76 56 2.6 6.1 0.00 0.00 0.00 81
20260507125339 77 88 3.5 7.8 0.00 0.00 0.00 81
20260507124836 76 81 2.6 5.2 0.00 0.00 0.00 84
20260507124332 75 101 1.7 5.2 0.00 0.00 0.00 85
20260507123831 75 95 1.7 3.5 0.00 0.00 0.00 86
20260507123328 74 86 0.9 0.9 0.00 0.00 0.00 88
20260507122824 75 89 1.7 3.5 0.00 0.00 0.00 86
20260507122319 73 75 0.9 2.6 0.00 0.00 0.00 90
20260507121816 73 95 2.6 5.2 0.00 0.00 0.00 90
20260507121311 72 78 1.7 3.5 0.00 0.00 0.00 91
20260507120808 73 112 3.5 5.2 0.00 0.00 0.00 90
20260507120304 73 93 3.5 6.1 0.00 0.00 0.00 88
20260507115801 74 104 0.9 3.5 0.00 0.00 0.00 88
20260507115257 74 123 1.7 5.2 0.00 0.00 0.00 87
20260507114752 74 87 1.7 2.6 0.00 0.00 0.00 88
20260507114250 73 89 0.9 3.5 0.00 0.00 0.00 89
20260507113747 73 94 3.5 3.5 0.00 0.00 0.00 90
20260507113244 73 94 1.7 5.2 0.00 0.00 0.00 89
20260507112742 74 80 2.6 2.6 0.00 0.00 0.00 89
20260507112238 73 92 0.0 0.9 0.00 0.00 0.00 92
20260507111736 73 104 0.0 1.7 0.00 0.00 0.00 92
20260507111233 73 90 1.7 0.9 0.00 0.00 0.00 93
20260507110728 72 295 0.0 0.9 0.00 0.00 0.00 95
20260507110225 71 96 0.9 0.9 0.00 0.00 0.00 96
20260507105722 71 96 0.0 0.9 0.00 0.00 0.00 97
20260507105218 70 96 0.9 0.9 0.00 0.00 0.00 97
20260507104716 70 95 0.0 0.0 0.00 0.00 0.00 97
20260507104212 70 95 0.0 0.0 0.00 0.00 0.00 98
20260507103708 70 95 0.0 0.0 0.00 0.00 0.00 97
20260507103205 70 96 0.0 0.9 0.00 0.00 0.00 98
20260507102701 69 96 0.0 0.9 0.00 0.00 0.00 98
20260507102158 69 95 0.0 0.0 0.00 0.00 0.00 98
20260507101653 69 95 0.0 0.9 0.00 0.00 0.00 98
20260507101149 69 95 0.0 1.7 0.00 0.00 0.00 98
20260507100647 69 96 0.0 0.9 0.00 0.00 0.00 98
20260507100145 69 96 0.0 0.9 0.00 0.00 0.00 98
20260507095643 69 96 0.0 0.0 0.00 0.00 0.00 98
20260507095139 69 96 0.0 0.0 0.00 0.00 0.00 98
20260507094635 69 95 0.0 0.0 0.00 0.00 0.00 98
20260507094132 69 96 0.0 0.0 0.00 0.00 0.00 98
20260507093629 69 96 0.0 0.9 0.00 0.00 0.00 98
20260507093128 69 96 0.0 0.9 0.00 0.00 0.00 98
20260507092625 69 96 0.9 1.7 0.00 0.00 0.00 98
20260507092121 69 142 0.0 1.7 0.00 0.00 0.00 98
20260507091618 69 142 0.0 0.9 0.00 0.00 0.00 98
20260507091114 68 142 0.0 0.9 0.00 0.00 0.00 98
20260507090610 69 142 0.0 0.0 0.00 0.00 0.00 98
20260507090107 69 142 0.0 0.0 0.00 0.00 0.00 98
20260507085604 69 142 0.0 0.9 0.00 0.00 0.00 98
20260507085101 69 142 0.0 0.0 0.00 0.00 0.00 98
20260507084557 69 142 0.0 0.0 0.00 0.00 0.00 98
20260507084054 69 142 0.9 0.9 0.00 0.00 0.00 98
20260507083551 68 142 0.0 0.9 0.00 0.00 0.00 98
20260507083048 68 142 0.9 0.9 0.00 0.00 0.00 98
20260507082544 67 143 0.0 0.9 0.00 0.00 0.00 98
20260507082041 67 143 0.0 0.0 0.00 0.00 0.00 97
20260507081537 67 143 0.0 0.0 0.00 0.00 0.00 97
20260507081034 67 143 0.0 0.0 0.00 0.00 0.00 97
20260507080529 67 143 0.0 0.0 0.00 0.00 0.00 97
20260507080026 67 143 0.0 0.0 0.00 0.00 0.00 97
20260507075521 67 143 0.0 0.0 0.00 0.00 0.00 97
20260507075018 66 143 0.0 0.0 0.00 0.00 0.00 97
20260507074515 67 143 0.0 0.0 0.00 0.00 0.00 97
20260507074014 67 143 0.0 0.0 0.00 0.00 0.00 97
20260507073509 67 143 0.0 0.0 0.00 0.00 0.00 97
20260507073006 68 143 0.0 0.0 0.00 0.00 0.00 97
20260507072504 68 144 0.9 0.9 0.00 0.00 0.00 97
20260507072000 68 143 0.0 0.0 0.00 0.00 0.00 97
20260507071457 68 143 0.0 0.9 0.00 0.00 0.00 97
20260507070954 68 143 0.0 0.0 0.00 0.00 0.00 97
20260507070451 68 142 0.0 0.0 0.00 0.00 0.00 97
20260507065948 68 142 0.0 0.0 0.00 0.00 0.00 97
20260507065445 68 142 0.0 0.0 0.00 0.00 0.00 97
20260507064942 68 142 0.0 0.0 0.00 0.00 0.00 97
20260507064440 69 143 0.0 0.0 0.00 0.00 0.00 97
20260507063937 69 143 0.0 0.0 0.00 0.00 0.00 96
20260507063434 69 143 0.0 0.0 0.00 0.00 0.00 97
20260507062932 69 142 0.0 0.0 0.00 0.00 0.00 97
20260507062429 69 272 0.0 0.9 0.00 0.00 0.00 97
20260507061926 68 272 0.0 0.0 0.00 0.00 0.00 97
20260507061424 68 272 0.0 0.0 0.00 0.00 0.00 97
20260507060922 68 272 0.0 0.0 0.00 0.00 0.00 97
20260507060418 69 272 0.0 0.0 0.00 0.00 0.00 97
20260507055915 69 272 0.0 0.0 0.00 0.00 0.00 97
20260507055410 68 272 0.0 0.0 0.00 0.00 0.00 97
20260507054908 68 272 0.0 0.0 0.00 0.00 0.00 97
20260507054403 68 272 0.0 0.0 0.00 0.00 0.00 97
20260507053901 68 272 0.0 0.0 0.00 0.00 0.00 97
20260507053359 68 272 0.0 0.0 0.00 0.00 0.00 97
20260507052857 67 272 0.0 0.0 0.00 0.00 0.00 97
20260507052354 67 272 0.0 0.0 0.00 0.00 0.00 96
20260507051851 67 272 0.0 0.0 0.00 0.00 0.00 97
20260507051349 67 272 0.0 0.0 0.00 0.00 0.00 97
20260507050845 67 272 0.0 0.0 0.00 0.00 0.00 97
20260507050342 67 272 0.0 0.0 0.00 0.00 0.00 97
20260507045839 66 272 0.0 0.0 0.00 0.00 0.00 97
20260507045335 66 272 0.0 0.0 0.00 0.00 0.00 96
20260507044832 66 272 0.0 0.0 0.00 0.00 0.00 96
20260507044329 66 272 0.0 0.0 0.00 0.00 0.00 96
20260507043825 66 272 0.0 0.0 0.00 0.00 0.00 97
20260507043322 66 272 0.0 0.0 0.00 0.00 0.00 96
20260507042818 66 272 0.0 0.0 0.00 0.00 0.00 96
20260507042314 66 272 0.0 0.0 0.00 0.00 0.00 96
20260507041811 66 272 0.0 0.0 0.00 0.00 0.00 96
20260507041307 66 272 0.0 0.0 0.00 0.00 0.00 96
20260507040805 66 272 0.9 0.9 0.00 0.00 0.00 96
20260507040301 66 272 0.0 0.0 0.00 0.00 0.00 95
20260507035756 66 272 0.0 0.0 0.00 0.00 0.00 96
20260507035252 67 272 0.0 0.0 0.00 0.00 0.00 96
20260507034750 66 272 0.0 0.0 0.00 0.00 0.00 96
20260507034246 66 272 0.0 0.0 0.00 0.00 0.00 96
20260507033745 66 272 0.0 0.0 0.00 0.00 0.00 96
20260507033242 67 272 0.0 0.0 0.00 0.00 0.00 96
20260507032739 66 272 0.0 0.0 0.00 0.00 0.00 96
20260507032235 66 272 0.0 0.0 0.00 0.00 0.00 96
20260507031732 67 272 0.0 0.0 0.00 0.00 0.00 95
20260507031229 67 272 0.0 0.0 0.00 0.00 0.00 95
20260507030726 67 272 0.0 0.0 0.00 0.00 0.00 95
20260507030223 67 272 0.0 0.9 0.00 0.00 0.00 95
20260507025720 67 272 0.0 0.0 0.00 0.00 0.00 95
20260507025217 68 272 0.0 0.0 0.00 0.00 0.00 95
20260507024715 68 272 0.0 0.0 0.00 0.00 0.00 95
20260507024212 68 272 0.0 0.0 0.00 0.00 0.00 95
20260507023707 68 272 0.0 0.9 0.00 0.00 0.00 95
20260507023205 67 225 0.9 0.9 0.00 0.00 0.00 95
20260507022702 67 213 0.0 0.0 0.00 0.00 0.00 95
20260507022158 67 226 0.0 0.0 0.00 0.00 0.00 94
20260507021654 68 213 0.0 0.0 0.00 0.00 0.00 94
20260507021149 68 213 0.0 0.9 0.00 0.00 0.00 95
20260507020649 68 213 0.0 0.0 0.00 0.00 0.00 95
20260507020144 67 221 0.9 0.9 0.00 0.00 0.00 95
20260507015643 67 213 0.0 0.0 0.00 0.00 0.00 95
20260507015140 67 226 0.0 0.0 0.00 0.00 0.00 94
20260507014636 67 226 0.0 0.0 0.00 0.00 0.00 94
20260507014132 67 226 0.0 0.0 0.00 0.00 0.00 94
20260507013629 68 213 0.0 0.0 0.00 0.00 0.00 93
20260507013126 68 213 0.0 0.0 0.00 0.00 0.00 93
20260507012623 68 213 0.0 0.0 0.00 0.00 0.00 93
20260507012118 68 213 0.0 0.0 0.00 0.00 0.00 93
20260507011617 68 213 0.0 0.0 0.00 0.00 0.00 92
20260507011113 68 213 0.0 0.0 0.00 0.00 0.00 93
20260507010608 68 213 0.0 0.0 0.00 0.00 0.00 92
20260507010104 69 213 0.0 0.0 0.00 0.00 0.00 92
20260507005602 69 213 0.0 0.0 0.00 0.00 0.00 92
20260507005058 69 213 0.0 0.0 0.00 0.00 0.00 91
20260507004555 69 213 0.0 0.0 0.00 0.00 0.00 91
20260507004052 69 213 0.0 0.0 0.00 0.00 0.00 91
20260507003548 70 213 0.0 0.0 0.00 0.00 0.00 90
20260507003043 70 213 0.0 0.0 0.00 0.00 0.00 90
20260507002540 70 213 0.0 0.0 0.00 0.00 0.00 89
20260507002036 70 213 0.0 0.0 0.00 0.00 0.00 89
20260507001533 71 213 0.0 0.0 0.00 0.00 0.00 88
20260507001030 71 221 0.0 0.0 0.00 0.00 0.00 88
20260507000526 71 213 0.9 1.7 0.00 0.00 0.00 88
20260507000023 71 225 0.9 0.9 0.00 0.00 0.00 87
20260506235520 71 227 1.7 1.7 0.00 0.00 0.00 87
20260506235015 71 217 0.9 1.7 0.00 0.00 0.00 87
20260506234513 72 210 0.9 1.7 0.00 0.00 0.00 86
20260506234010 72 210 0.9 0.9 0.00 0.00 0.00 86
20260506233506 72 210 1.7 1.7 0.00 0.00 0.00 85
20260506233003 72 200 0.9 1.7 0.00 0.00 0.00 85
20260506232459 72 206 1.7 1.7 0.00 0.00 0.00 85
20260506231955 72 205 1.7 1.7 0.00 0.00 0.00 85
20260506231453 72 213 1.7 1.7 0.00 0.00 0.00 85
20260506230950 72 193 1.7 1.7 0.00 0.00 0.00 84
20260506230446 73 190 0.9 1.7 0.00 0.00 0.00 84
20260506225943 73 211 0.9 1.7 0.00 0.00 0.00 84
20260506225440 73 182 0.9 1.7 0.00 0.00 0.00 84
20260506224937 73 218 2.6 2.6 0.00 0.00 0.00 83